Weather History for Seldovia, AK

Change the Weather History Date:

Tuesday, February 25, 2014

  Actual Average (PAHO) Record (PAHO)
Temperature  
Mean Temperature 34 °F -  
Max Temperature 42 °F 34 °F 47 °F (1960)
Min Temperature 27 °F 22 °F -6 °F (1971)
Degree Days  
Heating Degree Days 30    
Moisture  
Dew Point 27 °F    
Average Humidity 77    
Maximum Humidity 100    
Minimum Humidity 53    
Precipitation  
Precipitation 0.00 in - - ()
Sea Level Pressure  
Sea Level Pressure 29.95 in    
Wind  
Wind Speed 2 mph (ENE)    
Max Wind Speed 16 mph    
Max Gust Speed 26 mph    
Visibility 10 miles    
Events Rain    
Averages and records for this station are not official NWS values.
T = Trace of Precipitation, MM = Missing Value Source: NWS Daily Summary

Daily Weather History Graph

Daily Weather History Graph

Search for Another Location

Airport:

Trip Planner

Search our weather history database for the weather conditions in past years. The results will help you decide how hot, cold, wet, or windy it might be!

Date:

Astronomy

Feb. 25, 2014 Rise Set
Actual Time 8:14 AM AKST 6:26 PM AKST
Civil Twilight 7:33 AM AKST 7:07 PM AKST
Nautical Twilight 6:46 AM AKST 7:54 PM AKST
Astronomical Twilight 5:58 AM AKST 8:42 PM AKST
Moon 6:01 AM AKST (2/25) 2:03 PM AKST (2/25)
Length of Visible Light 11h 34m
Length of Day
10h 11m
Waning Crescent, 17% of the Moon is Illuminated
Feb 25
Waning Crescent
Feb 28
New
Mar 8
First Quarter
Mar 16
Full
Mar 23
Last Quarter

Hourly Weather History & Observations

Time (AKST) Temp. Windchill Dew Point Humidity Pressure Visibility Wind Dir Wind Speed Gust Speed Precip Events Conditions
12:53 AM 32.0 °F - 30.0 °F 92% 30.05 in 10.0 mi Calm Calm - N/A   Overcast
1:53 AM 32.0 °F - 30.9 °F 96% 30.06 in 10.0 mi Calm Calm - N/A   Overcast
3:53 AM 30.0 °F - 28.9 °F 96% 30.06 in 10.0 mi Calm Calm - N/A   Scattered Clouds
4:53 AM 28.9 °F - 28.0 °F 96% 30.06 in 10.0 mi Calm Calm - N/A   Mostly Cloudy
5:53 AM 28.9 °F - 28.0 °F 96% 30.06 in 10.0 mi Calm Calm - N/A   Mostly Cloudy
6:53 AM 27.0 °F 21.6 °F 27.0 °F 100% 30.06 in 10.0 mi South 4.6 mph - N/A   Partly Cloudy
7:53 AM 28.0 °F - 26.1 °F 92% 30.04 in 10.0 mi Calm Calm - N/A   Clear
8:53 AM 27.0 °F - 26.1 °F 96% 30.04 in 10.0 mi Calm Calm - N/A   Clear
9:53 AM 28.0 °F - 27.0 °F 96% 30.04 in 10.0 mi Calm Calm - N/A   Clear
10:53 AM 32.0 °F - 30.0 °F 92% 30.03 in 10.0 mi Calm Calm - N/A   Clear
11:53 AM 37.0 °F 34.5 °F 28.9 °F 73% 30.01 in 10.0 mi SSW 3.5 mph - N/A   Clear
12:53 PM 37.9 °F - 28.0 °F 68% 29.98 in 10.0 mi Calm Calm - N/A   Clear
1:53 PM 37.9 °F - 26.1 °F 62% 29.96 in 10.0 mi Calm Calm - N/A   Clear
2:53 PM 39.0 °F - 23.0 °F 53% 29.95 in 10.0 mi Calm Calm - N/A   Clear
3:53 PM 37.9 °F - 24.1 °F 57% 29.91 in 10.0 mi Calm Calm - N/A   Clear
4:53 PM 37.0 °F - 23.0 °F 57% 29.88 in 10.0 mi Calm Calm - N/A   Clear
5:53 PM 37.0 °F 30.4 °F 23.0 °F 57% 29.85 in 10.0 mi North 9.2 mph - N/A   Partly Cloudy
6:53 PM 34.0 °F - 27.0 °F 75% 29.86 in 10.0 mi Calm Calm - N/A   Overcast
7:53 PM 32.0 °F - 28.0 °F 85% 29.83 in 10.0 mi Calm Calm - N/A   Overcast
8:53 PM 41.0 °F 35.2 °F 25.0 °F 53% 29.79 in 10.0 mi ESE 9.2 mph 19.6 mph N/A   Overcast
9:53 PM 42.1 °F 35.7 °F 26.1 °F 53% 29.77 in 10.0 mi NE 11.5 mph 21.9 mph N/A   Mostly Cloudy
10:53 PM 42.1 °F 34.5 °F 27.0 °F 55% 29.76 in 10.0 mi NNE 15.0 mph 23.0 mph N/A   Overcast
11:53 PM 41.0 °F 32.8 °F 30.9 °F 67% 29.74 in 10.0 mi NE 16.1 mph 26.5 mph 0.00 in Rain Light Rain